Location: Newark
(45.8667°N, 9.7333°E)
Time: 21:58:48
(UTC+00:00)

A-11 Canister half - Pass Details

Date: 26 January 2020
Orbit: 1517 x 1683 km, 47.2° (Epoch: 19 February)

Event Time Altitude Azimuth Distance (km) Brightness Sun altitude
Rises 19:55:23 0° 175° (S) 4,777 - -37.8°
Reaches altitude 10° 20:00:29 10° 153° (SSE) 3,761 - -38.6°
Maximum altitude 20:04:55 14° 124° (SE) 3,404 - -39.4°
Drops below altitude 10° 20:09:17 10° 96° (E) 3,716 - -40.1°
Sets 20:14:13 0° 74° (ENE) 4,681 - -40.9°
